Miscellaneous Local Product
Issued by NWS Hastings, NE

Home | Current Version | Previous Version | Graphics & Text | Print | Product List | Glossary On
Versions: 1 2 3 4 5 6 7 8 9 10 11 12 13 14 15 16 17 18 19 20 21 22 23 24 25 26 27 28 29 30 31 32 33 34 35 36 37 38 39 40 41 42 43 44 45 46 47 48 49 50
000
AXUS43 KGID 310002
MISGRI

GID CWA HOURLY WEATHER ROUNDUP
NATIONAL WEATHER SERVICE HASTINGS NE
700 PM CDT WED JUL 30 2014

NOTE: "FAIR" INDICATES FEW OR NO CLOUDS BELOW 12,000 FEET WITH NO
SIGNIFICANT WEATHER AND/OR OBSTRUCTIONS TO VISIBILITY.

...SOUTH CENTRAL NEBRASKA...

CITY           SKY/WX    TMP DP  RH WIND       PRES   REMARKS
GRAND ISLAND   PTSUNNY   78  56  46 SE5       30.14S
HASTINGS       MOSUNNY   77  52  41 E5        30.14S
KEARNEY        MOSUNNY   79  55  44 NE5       30.14F
ORD            PTSUNNY   80  53  39 CALM      30.12S
YORK           MOSUNNY   75  55  50 E3        30.13S
AURORA         PTSUNNY   76  58  52 E3        30.13S
LEXINGTON      PTSUNNY   78  55  44 CALM      30.15F
HOLDREGE       PTSUNNY   77  54  43 CALM      30.15S
HEBRON         MOSUNNY   79  48  33 N5        30.11F

...NEBRASKA PANHANDLE...

CITY           SKY/WX    TMP DP  RH WIND       PRES   REMARKS
CHADRON        PTSUNNY   84  45  25 W5        30.15F
ALLIANCE       CLOUDY    78  51  38 S7        30.20F
SCOTTSBLUFF    PTSUNNY   75  55  49 SW9       30.22F
SIDNEY         CLOUDY    69  55  60 SW14      30.28F

...WESTERN AND NORTH CENTRAL NEBRASKA...

CITY           SKY/WX    TMP DP  RH WIND       PRES   REMARKS
VALENTINE      MOSUNNY   83  48  29 SW6       30.11F
AINSWORTH      PTSUNNY   79  51  37 CALM      30.13F
ONEILL         MOSUNNY   80  55  42 E3        30.12F
BROKEN BOW     PTSUNNY   78  56  46 SE3       30.15S
IMPERIAL       PTSUNNY   76  54  46 W5        30.20F
NORTH PLATTE   PTSUNNY   77  55  46 S5        30.16S
MCCOOK         PTSUNNY   78  54  43 W6        30.17F

...EASTERN NEBRASKA...

CITY           SKY/WX    TMP DP  RH WIND       PRES   REMARKS
NORFOLK        MOSUNNY   79  52  38 CALM      30.11S
SO SIOUX CITY  MOSUNNY   78  55  44 E3        30.10S
TEKAMAH        PTSUNNY   79  54  41 E6        30.09F
ALBION         MOSUNNY   76  57  51 E3        30.12F
OMAHA EPPLEY   PTSUNNY   80  52  37 NE9       30.09F
OFFUTT AFB     SUNNY     78  56  45 N1        30.08F
MILLARD        PTSUNNY   79  53  40 N5        30.09S
LINCOLN        MOSUNNY   80  52  37 N9        30.11S
NEBRASKA CITY  SUNNY     77  53  42 CALM      30.09F
BEATRICE       SUNNY     77  54  44 N3        30.10S
FALLS CITY     SUNNY     80  55  42 N5        30.08S

...NORTHERN KANSAS...

CITY           SKY/WX    TMP DP  RH WIND       PRES   REMARKS
GOODLAND       PTSUNNY   71  55  56 NW5       30.24F
HILL CITY      MOSUNNY   80  52  37 E3        30.15F
NORTON         CLEAR     79  45  29 N8        30.14F
PHILLIPSBURG   SUNNY     81  48  32 N6        30.13F
SMITH CENTER   SUNNY     79  48  34 NE8       30.12F
HAYS           MOSUNNY   75  54  46 NE8       30.14F
RUSSELL        MOSUNNY   78  53  41 NE9       30.11F
CONCORDIA      MOSUNNY   78  52  40 NE8       30.10F
SALINA         MOSUNNY   77  56  48 E7        30.10F
TOPEKA         PTSUNNY   80  57  45 NE6       30.08S



USA.gov is the U.S. government's official web portal to all federal, state and local government web resources and services.